Location: Newark
(31.5350°N, 35.0986°E)
Time: 01:30:26
(UTC+00:00)

SR - Pass Details

Date: 19 October 2019
Orbit: 574 x 882 km, 66.7° (Epoch: 18 November)

Event Time Altitude Azimuth Distance (km) Brightness Sun altitude
Rises 04:36:18 0° 344° (NNW) 3,466 ? 9.7°
Reaches altitude 10° 04:39:01 10° 353° (N) 2,539 ? 10.2°
Maximum altitude 04:44:25 35° 58° (ENE) 1,382 ? 11.3°
Drops below altitude 10° 04:49:42 10° 123° (ESE) 2,496 ? 12.4°
Sets 04:52:21 0° 132° (SE) 3,401 ? 12.9°
